User: anonymous   Login
Location: Unspecified
(0.0000°N, 0.0000°E)
Time: 06:27:45
(UTC+02:00)
Language:

Palapa 6 Rocket - Orbit

View from above orbital plane
View from above orbital plane
View from above satellite
View from above satellite

Ground track
Ground track

The orbit data is extracted from the following two-line orbital elements,

1 20571U 90034B   16237.06473701  .00000529  00000-0  28675-4 0  9996
2 20571  22.7457 156.1142 0509591 170.5168 190.5328 14.11698910349993
Epoch (UTC): 24 August 2016 01:33:13
Eccentricity: 0.0509591
inclination: 22.7457°
perigee height: 485 km
apogee height: 1222 km
right ascension of ascending node: 156.1142°
argument of perigee: 170.5168°
revolutions per day: 14.11698910
mean anomaly at epoch: 190.5328°
orbit number at epoch: 34999

The dashed part of the orbit path shows where the satellite is in the earth's shadow,  

DLR